Regional Weather Roundup
Issued by NWS

Home | Current Version | Previous Version | Text Only | Print | Product List | Glossary Off
Versions: 1 2 3 4 5 6 7 8 9 10 11 12 13 14 15 16 17 18 19 20 21 22 23 24 25 26 27 28 29 30 31 32 33 34 35 36 37 38 39 40 41 42 43 44 45 46 47 48 49 50

000
ASUS45 KTFX 312010
RWRMT
MONTANA REGIONAL WEATHER ROUNDUP
NATIONAL WEATHER SERVICE GREAT FALLS MT
200 PM MDT FRI JUL 31 2015

NOTE: "FAIR" INDICATES FEW OR NO CLOUDS BELOW 12000 FEET WITH NO
SIGNIFICANT WEATHER AND/OR OBSTRUCTIONS TO VISIBILITY.

MTZ001>007-043-312100-
WEST OF THE DIVIDE

CITY           SKY/WX    TMP DP  RH WIND       PRES   REMARKS
KALISPELL      CLEAR     90  36  14 S13       30.12F
MISSOULA       SUNNY     84  37  18 S3        30.17F
BUTTE          SUNNY     82  28  14 CALM      30.32F
MULLAN PASS    SUNNY     77  25  14 CALM      30.35F
DEER LODGE       N/A     84  34  16 NE5       30.29F
EUREKA           N/A     93  34  12 S5        30.08F
HAMILTON         N/A     84  50  30 N8        30.18F
LIBBY            N/A     93  30  10 NW6       30.08F
RONAN            N/A     90  36  14 SW6       30.19F
$$

MTZ008-052>055-312100-
SOUTHWEST MONTANA

CITY           SKY/WX    TMP DP  RH WIND       PRES   REMARKS
BOZEMAN        SUNNY     86  43  22 VRB3      30.25F
DILLON         SUNNY     86  32  14 VRB5      30.28F
W YELLOWSTONE  MOSUNNY   77  30  18 SW7       30.39F
THREE FORKS      N/A     86  42  21 NE3       30.20F
TWIN BRIDGES     N/A     86  33  15 SE6       30.23F
$$

MTZ009-010-012-014-046-048-049-054-312100-
EAST SLOPES AND CENTRAL MONTANA

CITY           SKY/WX    TMP DP  RH WIND       PRES   REMARKS
CUT BANK       SUNNY     87  27  11 MISG      30.15F
GREAT FALLS    SUNNY     89  34  14 VRB6      30.16F
MALMSTROM AFB  SUNNY     87  33  14 SW6G13    30.16F
HELENA         SUNNY     89  40  17 MISG      30.18F
$$

MTZ011-013-016-021-045-047-050-051-312100-
NORTH CENTRAL MONTANA

CITY           SKY/WX    TMP DP  RH WIND       PRES   REMARKS
HAVRE          SUNNY     90  42  18 VRB3      30.08F
LEWISTOWN      SUNNY     88  38  17 N9        30.19F
CHINOOK          N/A     88  48  25 NW6       30.08F
FORT BENTON      N/A     90  36  14 W6        30.11F
$$

MTZ017>020-022>027-061-062-312100-
NORTHEAST MONTANA

CITY           SKY/WX    TMP DP  RH WIND       PRES   REMARKS
GLASGOW        SUNNY     90  39  16 S9        30.07F
JORDAN           N/A     93  37  14 W8        30.07F
SIDNEY         SUNNY    N/A N/A N/A E7        30.09F
WOLF POINT     SUNNY     91  43  18 CALM      30.08F
MALTA            N/A     90  50  25 CALM      30.03F
PLENTYWOOD       N/A     82  48  30 N5        30.11F
POPLAR           N/A     90  45  20 SE5       30.09F
$$

MTZ028>42-056>058-312100-
SOUTHCENTRAL AND SOUTHEAST MONTANA

CITY           SKY/WX    TMP DP  RH WIND       PRES   REMARKS
BAKER          SUNNY     90  37  15 VRB7      30.16F
BILLINGS       MOSUNNY   90  40  17 S7        30.15F
LIVINGSTON     SUNNY     92  30  11 W15G25    30.22F
MILES CITY     SUNNY     92  42  17 VRB5      30.08F
FORSYTH          N/A     93  37  14 W16G22    30.06F
LAUREL           N/A     92  41  17 SE3       30.12F
ROUNDUP          N/A     91  39  16 S7        30.04F
$$

REGIONAL REPORTS...DAKOTAS

CITY           SKY/WX    TMP DP  RH WIND       PRES   REMARKS
WILLISTON      SUNNY     87  44  22 VRB6      30.11F
MINOT          SUNNY     82  48  30 NW16G23   30.09F
DICKINSON      SUNNY     88  40  18 N6        30.13F
BEACH          FAIR      86  39  19 SE7       30.15F
CROSBY         FAIR      81  48  32 W9        30.13S
BISMARCK       SUNNY     88  51  28 N17       30.09F
GRAND FORKS    MOSUNNY   82  49  31 NW15G21   30.01F
FARGO          SUNNY     83  52  34 NW17      30.04F
BUFFALO SD       N/A     89  38  16 VRB6      30.11F
RAPID CITY     SUNNY     86  54  33 E8        30.19F
$$

REGIONAL REPORTS...WYOMING/IDAHO/WASHINGTON

CITY           SKY/WX    TMP DP  RH WIND       PRES   REMARKS
GILLETTE       MOSUNNY   89  40  17 N7        30.20F
SHERIDAN       SUNNY     92  35  13 CALM      30.18F
BUFFALO WY     SUNNY     88  36  15 VRB6      30.25F
CODY           SUNNY     88  34  14 NE10      30.24F
YELLOWSTONE LA   N/A     74  33  22 VRB5      30.49F
IDAHO FALLS    SUNNY     88  35  15 CALM      30.27F
SALMON         SUNNY     82  43  24 CALM      30.20F
BOISE          SUNNY     94  37  13 W8        30.13F
SPOKANE        MOSUNNY   96  33  11 W5        30.08F HX  91
$$

REGIONAL REPORTS...ALBERTA

CITY           SKY/WX    TMP DP  RH WIND       PRES   REMARKS
EDMONTON       SUNNY     81  52  36 S8        30.00F
CALGARY        MOSUNNY   84  50  30 SE9G18    30.08F
LETHBRIDGE     MOSUNNY   86  43  22 E7        30.08F
MEDICINE HAT   MOSUNNY   86  48  26 W5        30.06F
WATERTON GATE    N/A     86  36  16 SW14G25     N/A
CARDSTON         N/A     88  30  12 W7          N/A
MILK RIVER       N/A     90  32  12 N8G17       N/A
ONEFOUR          N/A     84  43  23 NW10        N/A
$$

REGIONAL REPORTS...SASKATCHEWAN

CITY           SKY/WX    TMP DP  RH WIND       PRES   REMARKS
SWIFT CURRENT  SUNNY     79  50  36 E10       30.12F
REGINA         MOSUNNY   79  46  31 W6        30.12F
SASKATOON      MOSUNNY   77  45  31 W2        30.10F
CYPRESS HILLS    N/A     79  45  29 SW7         N/A
VAL MARIE        N/A     86  43  22 SW9         N/A
ROCKGLEN         N/A     81  45  28 NE3         N/A
$$



USA.gov is the U.S. government's official web portal to all federal, state and local government web resources and services.